Find BRITE-Toronto

NORAD ID: 40020 Int'l Des: 2014-033 Owner: CSA/UTIAS Country: CA operational
LEOCIRCULARRETROGRADESSO

实时位置

正在加载3D地球...

关于 BRITE-Toronto

正在加载描述...

即将过境

Passes for default location (London). Set your location on the main map for personalized predictions.

高度历史

Loading altitude history...

两行轨道根数

1 40020U 14033L 26106.61428552 .00000667 00000-0 10765-3 0 9996
2 40020 97.9638 236.7150 0080031 113.7564 247.2063 14.72580122633157
Epoch: Apr 16, 2026 • Age: 13 hours

当前状态

高度 625.2 km
速度 7.57 km/s
星下点 64.01°N, 45.87°W
发射日期 Jun 19, 2014
运行时间 11.8 years
类型 other

技术详情

分类 Payload
质量 7.00 kg
干质量 7.00 kg
总质量 7.00 kg
长度 0.20 m
直径 0.20 m
跨度 0.20 m
形状 Box
制造商 UTIAS
平台类型 GNB
阶段状态 In Orbit
所有者/国家 CSA/UTIAS/CA

Most Searched